[keps] orb06278.amsat
Ray Hoad
r.hoad at att.net
Thu Oct 5 19:36:54 PDT 2006
SB KEPS @ AMSAT $ORB06278.O
Orbital Elements 06278.OSCAR
HR AMSAT ORBITAL ELEMENTS FOR OSCAR SATELLITES
FROM WA5QGD FORT WORTH,TX October 5, 2006
Send Subscribe/unsubscribe to KEPS at
http://www.amsat.org/mailman/listinfo/keps
BID: ORB06278.O
TO ALL RADIO AMATEURS BT
Satellite: AO-07
Catalog number: 07530
Epoch time: 06276.96278712
Element set: 0696
Inclination: 101.5570 deg
RA of node: 317.1305 deg
Eccentricity: 0.0012002
Arg of perigee: 035.7395 deg
Mean anomaly: 324.4477 deg
Mean motion: 12.53571566 rev/day
Decay rate: -2.8e-07 rev/day^2
Epoch rev: 45901
Checksum: 295
Satellite: UO-11
Catalog number: 14781
Epoch time: 06277.61511481
Element set: 0193
Inclination: 098.2079 deg
RA of node: 290.1590 deg
Eccentricity: 0.0008141
Arg of perigee: 275.6350 deg
Mean anomaly: 084.3928 deg
Mean motion: 14.79468089 rev/day
Decay rate: 4.81e-06 rev/day^2
Epoch rev: 21194
Checksum: 318
Satellite: RS-10/11
Catalog number: 18129
Epoch time: 06278.89875203
Element set: 109
Inclination: 082.9212 deg
RA of node: 246.2467 deg
Eccentricity: 0.0012184
Arg of perigee: 138.2558 deg
Mean anomaly: 221.9530 deg
Mean motion: 13.72779178 rev/day
Decay rate: 4.9e-07 rev/day^2
Epoch rev: 96634
Checksum: 328
Satellite: RS-15
Catalog number: 23439
Epoch time: 06276.92949249
Element set: 0006
Inclination: 064.8161 deg
RA of node: 061.3490 deg
Eccentricity: 0.0166158
Arg of perigee: 235.2750 deg
Mean anomaly: 123.2427 deg
Mean motion: 11.27551874 rev/day
Decay rate: -3.9e-07 rev/day^2
Epoch rev: 48480
Checksum: 312
Satellite: FO-29
Catalog number: 24278
Epoch time: 06276.95646699
Element set: 0339
Inclination: 098.5187 deg
RA of node: 266.4695 deg
Eccentricity: 0.0351324
Arg of perigee: 027.6758 deg
Mean anomaly: 334.2599 deg
Mean motion: 13.52924715 rev/day
Decay rate: 4.3e-07 rev/day^2
Epoch rev: 50025
Checksum: 357
Satellite: SO-33
Catalog number: 25509
Epoch time: 06276.58496650
Element set: 0760
Inclination: 031.4339 deg
RA of node: 236.4850 deg
Eccentricity: 0.0355488
Arg of perigee: 344.0937 deg
Mean anomaly: 014.8820 deg
Mean motion: 14.28122080 rev/day
Decay rate: 1.0e-07 rev/day^2
Epoch rev: 41454
Checksum: 299
Satellite: VO-52
Catalog number: 28650
Epoch time: 06277.62984515
Element set: 0446
Inclination: 097.8623 deg
RA of node: 348.6686 deg
Eccentricity: 0.0027404
Arg of perigee: 008.1039 deg
Mean anomaly: 352.0651 deg
Mean motion: 14.81181350 rev/day
Decay rate: 2.87e-06 rev/day^2
Epoch rev: 07658
Checksum: 325
/EX
SB KEPS @ AMSAT $ORB06278.D
Orbital Elements 06278.MICROS
HR AMSAT ORBITAL ELEMENTS FOR THE MICROSATS
FROM WA5QGD FORT WORTH,TX October 5, 2006
Send SUBSCRIBE KEPS/UNSUBSCRIBE KEPS to majordomo at amsat.org only
BID: ORB06278.D
TO ALL RADIO AMATEURS BT
Satellite: AO-16
Catalog number: 20439
Epoch time: 06278.56933183
Element set: 861
Inclination: 098.1905 deg
RA of node: 282.3188 deg
Eccentricity: 0.0010073
Arg of perigee: 223.5827 deg
Mean anomaly: 136.4556 deg
Mean motion: 14.31734860 rev/day
Decay rate: 2.8e-07 rev/day^2
Epoch rev: 87211
Checksum: 312
Satellite: LO-19
Catalog number: 20442
Epoch time: 06278.58076541
Element set: 795
Inclination: 098.1873 deg
RA of node: 291.8500 deg
Eccentricity: 0.0011213
Arg of perigee: 222.5635 deg
Mean anomaly: 137.4686 deg
Mean motion: 14.31977374 rev/day
Decay rate: 4.1e-07 rev/day^2
Epoch rev: 87225
Checksum: 317
Satellite: AO-27
Catalog number: 22825
Epoch time: 06278.50344539
Element set: 512
Inclination: 098.2966 deg
RA of node: 254.9857 deg
Eccentricity: 0.0007814
Arg of perigee: 300.6094 deg
Mean anomaly: 059.4320 deg
Mean motion: 14.29185757 rev/day
Decay rate: 8.5e-07 rev/day^2
Epoch rev: 67911
Checksum: 334
Satellite: IO-26
Catalog number: 22826
Epoch time: 06278.52443689
Element set: 204
Inclination: 098.2908 deg
RA of node: 256.1773 deg
Eccentricity: 0.0008260
Arg of perigee: 297.4060 deg
Mean anomaly: 062.6291 deg
Mean motion: 14.29429611 rev/day
Decay rate: 2.6e-07 rev/day^2
Epoch rev: 67919
Checksum: 325
Satellite: PO-28
Catalog number: 22829
Epoch time: 06278.81453291
Element set: 488
Inclination: 098.2805 deg
RA of node: 257.6502 deg
Eccentricity: 0.0008834
Arg of perigee: 267.3351 deg
Mean anomaly: 092.6795 deg
Mean motion: 14.30125798 rev/day
Decay rate: 6.7e-07 rev/day^2
Epoch rev: 67945
Checksum: 351
Satellite: GO-32
Catalog number: 25397
Epoch time: 06277.73043051
Element set: 0127
Inclination: 098.4548 deg
RA of node: 330.5982 deg
Eccentricity: 0.0000388
Arg of perigee: 240.2640 deg
Mean anomaly: 119.8488 deg
Mean motion: 14.23111340 rev/day
Decay rate: -8.4e-07 rev/day^2
Epoch rev: 42782
Checksum: 297
Satellite: MO-46
Catalog number: 26548
Epoch time: 06278.43243868
Element set: 613
Inclination: 064.5555 deg
RA of node: 250.7344 deg
Eccentricity: 0.0041952
Arg of perigee: 231.5384 deg
Mean anomaly: 128.1958 deg
Mean motion: 14.83027714 rev/day
Decay rate: 2.33e-06 rev/day^2
Epoch rev: 32575
Checksum: 319
Satellite: NO-44
Catalog number: 26931
Epoch time: 06278.75917741
Element set: 417
Inclination: 067.0510 deg
RA of node: 082.8671 deg
Eccentricity: 0.0005043
Arg of perigee: 254.8457 deg
Mean anomaly: 105.2108 deg
Mean motion: 14.29454953 rev/day
Decay rate: 1.56e-06 rev/day^2
Epoch rev: 26173
Checksum: 307
Satellite: SO-50
Catalog number: 27607
Epoch time: 06276.72476637
Element set: 0137
Inclination: 064.5571 deg
RA of node: 143.6185 deg
Eccentricity: 0.0035332
Arg of perigee: 101.8023 deg
Mean anomaly: 258.7021 deg
Mean motion: 14.71177033 rev/day
Decay rate: -6.7e-07 rev/day^2
Epoch rev: 20339
Checksum: 289
Satellite: CO-55
Catalog number: 27844
Epoch time: 06278.61211241
Element set: 864
Inclination: 098.7204 deg
RA of node: 285.3863 deg
Eccentricity: 0.0010755
Arg of perigee: 103.3907 deg
Mean anomaly: 256.8469 deg
Mean motion: 14.20461158 rev/day
Decay rate: 7.8e-07 rev/day^2
Epoch rev: 16933
Checksum: 320
Satellite: CO-57
Catalog number: 27848
Epoch time: 06276.48737907
Element set: 0829
Inclination: 098.7213 deg
RA of node: 282.5887 deg
Eccentricity: 0.0010400
Arg of perigee: 111.9339 deg
Mean anomaly: 248.2953 deg
Mean motion: 14.20286419 rev/day
Decay rate: 3.3e-07 rev/day^2
Epoch rev: 16901
Checksum: 332
Satellite: AO-51
Catalog number: 28375
Epoch time: 06277.61424846
Element set: 0644
Inclination: 098.1526 deg
RA of node: 324.5956 deg
Eccentricity: 0.0083140
Arg of perigee: 236.7200 deg
Mean anomaly: 122.6005 deg
Mean motion: 14.40535153 rev/day
Decay rate: 1.9e-07 rev/day^2
Epoch rev: 11892
Checksum: 292
Satellite: CO-56
Catalog number: 28941
Epoch time: 06278.73727739
Element set: 218
Inclination: 098.1704 deg
RA of node: 308.1546 deg
Eccentricity: 0.0267977
Arg of perigee: 086.7304 deg
Mean anomaly: 276.4541 deg
Mean motion: 15.28558772 rev/day
Decay rate: 1.9897e-04 rev/day^2
Epoch rev: 3441
Checksum: 369
/EX
SB KEPS @ AMSAT $ORB06278.W
Orbital Elements 06278.WEATHER
HR AMSAT ORBITAL ELEMENTS FOR WEATHER SATELLITES
FROM WA5QGD FORT WORTH,TX October 5, 2006
Send SUBSCRIBE KEPS/UNSUBSCRIBE KEPS to majordomo at amsat.org only
BID: ORB06278.W
TO ALL RADIO AMATEURS BT
Satellite: NOAA-10
Catalog number: 16969
Epoch time: 06276.66238376
Element set: 0369
Inclination: 098.7604 deg
RA of node: 288.5282 deg
Eccentricity: 0.0012127
Arg of perigee: 191.2457 deg
Mean anomaly: 168.8460 deg
Mean motion: 14.27304408 rev/day
Decay rate: -7.1e-07 rev/day^2
Epoch rev: 04263
Checksum: 324
Satellite: NOAA-11
Catalog number: 19531
Epoch time: 06276.84526680
Element set: 0314
Inclination: 098.8238 deg
RA of node: 004.0731 deg
Eccentricity: 0.0012215
Arg of perigee: 043.1243 deg
Mean anomaly: 317.0872 deg
Mean motion: 14.14819033 rev/day
Decay rate: -2.4e-07 rev/day^2
Epoch rev: 92990
Checksum: 279
Satellite: NOAA-12
Catalog number: 21263
Epoch time: 06276.76058997
Element set: 0808
Inclination: 098.7399 deg
RA of node: 269.6315 deg
Eccentricity: 0.0013343
Arg of perigee: 129.7967 deg
Mean anomaly: 230.4399 deg
Mean motion: 14.25508259 rev/day
Decay rate: -6.4e-07 rev/day^2
Epoch rev: 79971
Checksum: 363
Satellite: MET-3/5
Catalog number: 21655
Epoch time: 06276.92677286
Element set: 0242
Inclination: 082.5590 deg
RA of node: 183.9769 deg
Eccentricity: 0.0013730
Arg of perigee: 125.2900 deg
Mean anomaly: 234.9509 deg
Mean motion: 13.17007952 rev/day
Decay rate: 5.1e-07 rev/day^2
Epoch rev: 72767
Checksum: 321
Satellite: MET-2/21
Catalog number: 22782
Epoch time: 06276.93933507
Element set: 0632
Inclination: 082.5451 deg
RA of node: 245.1662 deg
Eccentricity: 0.0020925
Arg of perigee: 233.0509 deg
Mean anomaly: 126.8737 deg
Mean motion: 13.83610512 rev/day
Decay rate: 2.7e-07 rev/day^2
Epoch rev: 66108
Checksum: 293
Satellite: OKEAN-4
Catalog number: 23317
Epoch time: 06278.71665038
Element set: 68
Inclination: 082.5423 deg
RA of node: 173.9189 deg
Eccentricity: 0.0023196
Arg of perigee: 014.8607 deg
Mean anomaly: 345.3264 deg
Mean motion: 14.82405629 rev/day
Decay rate: 2.13e-06 rev/day^2
Epoch rev: 64635
Checksum: 310
Satellite: NOAA-14
Catalog number: 23455
Epoch time: 06276.72949375
Element set: 0307
Inclination: 099.0269 deg
RA of node: 336.1006 deg
Eccentricity: 0.0010174
Arg of perigee: 104.7756 deg
Mean anomaly: 255.4597 deg
Mean motion: 14.13667141 rev/day
Decay rate: 5.5e-07 rev/day^2
Epoch rev: 60640
Checksum: 306
Satellite: SICH-1
Catalog number: 23657
Epoch time: 06278.71825935
Element set: 871
Inclination: 082.5290 deg
RA of node: 314.8221 deg
Eccentricity: 0.0024269
Arg of perigee: 003.9058 deg
Mean anomaly: 356.2349 deg
Mean motion: 14.81395653 rev/day
Decay rate: 1.42e-06 rev/day^2
Epoch rev: 59835
Checksum: 322
Satellite: NOAA-15
Catalog number: 25338
Epoch time: 06276.74798839
Element set: 0688
Inclination: 098.5234 deg
RA of node: 275.8307 deg
Eccentricity: 0.0011496
Arg of perigee: 059.5541 deg
Mean anomaly: 300.6767 deg
Mean motion: 14.24605508 rev/day
Decay rate: 1.51e-06 rev/day^2
Epoch rev: 43617
Checksum: 340
